sat.trackr.live / text

‹ back to catalog

ONEWEB-0529

NORAD 54145 · 2022-138AJ

PAYLOAD ACTIVE UNKNOWN

§ Identity

Operator
Country
UK
Launch date
2022-10-22
Launch site
SRILR
Launch vehicle
Mass (kg)
RCS (m²)

Purposes: comms

External: N2YO · Heavens-Above · Gunter

§ Orbital elements

Epoch: 2026-09-20T01:04:11.529696Z

Period
109.11 min
Inclination
87.9103°
Eccentricity
0.0001884
Mean motion
13.19725586 rev/d
Perigee alt
1,184.3 km
Apogee alt
1,187.2 km
Semi-major
7,563.9 km
B*
-2.2511e-5
RAAN
286.0732°
Arg perigee
85.0118°
Mean anomaly
275.1230°
Rev number
18,933

§ Raw data

ONEWEB-05291 54145U 22138AJ  26263.04457789  .00000004  00000+0 -22511-4 0  99972 54145  87.9103 286.0732 0001884  85.0118 275.1230 13.19725586189332

JSON: /api/v1/satellites/54145 · /tle

For live sub-satellite position, see the globe view (requires WebGL).

§ Visibility from observer

Set your observer location to see the next 7 days of passes ≥ 10°. The values pass through the URL so the page stays shareable.

No JS? Fill the form by hand. The geolocation button needs JavaScript.